Theta_e
334 333 332 332 336 337 342 343 346 342 345 348 345 347 343 343 348 349 349 348 348 351 348 352 351 356 351 352 351 349 341 340
332 332 334 333 337 339 343 338 335 342 342 344 344 342 335 337 339 346 351 351 350 349 346 346 347 347 345 343 343 346 342 339
329 330 331 333 333 337 341 339 335 343 352 348 343 339 334 337 337 332 334 348 347 345 344 344 345 344 343 343 343 344 342 340
329 329 328 331 333 333 335 343 347 347 335 333 332 330 331 332 331 331 340 334 343 344 345 346 348 348 347 345 343 344 338 336
326 328 329 329 337 338 337 341 339 336 333 332 331 330 331 329 330 331 336 331 333 338 346 344 347 346 344 345 345 344 342 341
325 324 325 328 328 331 332 332 339 331 332 334 333 329 329 329 328 330 337 333 338 340 343 342 346 345 343 342 341 339 337 333
320 321 323 323 323 324 323 325 327 336 333 335 332 328 330 337 333 334 343 345 346 343 341 343 345 342 341 340 339 337 334 334
316 318 319 320 320 320 320 320 321 324 326 334 335 332 335 336 338 336 338 340 340 340 340 338 339 339 338 337 333 335 335 333
315 315 316 318 317 318 317 317 318 319 318 318 321 328 326 326 331 326 326 326 327 335 336 335 335 335 334 335 332 329 328 329
310 312 312 313 315 316 316 316 316 316 316 316 318 319 320 316 319 320 317 320 322 322 327 330 330 331 330 331 330 329 327 328
308 310 310 311 312 313 314 314 313 314 313 314 313 314 313 312 313 312 313 317 317 318 318 317 319 322 319 322 325 325 324 325
308 309 309 309 311 312 313 313 311 311 312 309 308 308 306 308 310 311 309 312 312 310 309 312 311 313 313 318 319 323 321 319
307 308 308 309 311 310 311 311 309 309 309 309 308 305 307 307 306 304 304 306 308 307 306 306 307 307 307 309 312 314 319 318
308 309 308 307 308 308 308 308 308 308 308 306 305 303 302 302 300 300 301 302 304 304 304 304 303 304 305 307 308 310 312 315
306 305 305 306 306 306 307 306 305 306 305 304 302 300 299 298 298 299 298 299 300 301 302 303 303 304 306 306 307 307 308 309
306 305 305 305 305 305 305 303 303 303 302 300 300 299 299 299 299 299 299 299 299 301 303 303 304 305 306 307 308 306 306 307
305 305 304 303 304 303 303 302 301 301 300 299 299 299 299 299 300 300 300 300 303 304 303 304 306 308 306 308 309 309 309 308
304 303 303 303 302 302 301 301 299 299 300 302 303 300 301 301 301 300 301 303 305 306 304 305 306 307 306 307 310 311 311 311
302 302 302 302 301 300 299 299 299 302 303 302 301 301 304 303 300 302 303 305 306 307 307 308 305 307 308 308 308 309 309 310
301 302 301 300 298 298 298 299 302 303 300 300 299 300 303 303 303 304 306 305 307 307 306 305 306 307 307 306 306 308 309 308
Wind_Speed
15 4 11 14 9 5 5 6 7 9 4 3 3 2 3 3 5 7 7 5 7 6 4 5 4 9 4 6 4 4 5 5
8 8 9 7 2 6 8 5 6 4 3 4 3 1 8 10 9 18 9 4 5 3 3 3 3 2 3 2 3 4 5 5
12 8 9 6 6 3 5 7 3 8 5 6 5 8 9 16 11 20 18 10 3 2 3 0 3 4 4 4 5 3 4 4
16 13 10 11 9 9 10 9 8 6 8 4 4 3 4 7 11 9 15 19 14 10 6 7 4 2 3 3 4 4 4 4
16 12 13 12 7 6 11 6 8 7 0 3 2 4 6 4 4 12 15 3 13 11 10 6 3 3 4 2 2 4 4 5
13 12 9 10 11 12 13 12 7 4 5 5 3 2 2 2 2 3 10 5 8 11 9 6 3 2 1 2 1 2 2 3
11 12 11 11 12 12 13 12 12 8 6 4 5 5 1 2 3 4 2 8 5 5 3 5 7 4 4 3 0 2 2 2
10 11 11 11 11 12 9 10 13 9 7 5 4 1 4 7 6 4 5 4 4 6 5 5 5 6 6 4 2 2 2 3
8 9 7 7 8 11 11 11 11 9 8 6 5 5 7 8 4 12 11 9 11 7 4 5 5 4 5 6 4 3 3 3
8 8 7 8 7 8 8 8 9 9 7 6 4 5 5 4 5 10 11 13 13 11 10 10 11 9 12 11 9 4 3 3
6 7 7 7 7 7 7 7 6 7 9 7 8 5 6 8 9 10 11 12 12 13 14 11 11 8 7 6 8 10 6 4
7 7 7 8 7 7 7 7 7 7 8 6 8 6 5 5 8 9 11 13 14 13 13 13 12 10 11 9 8 5 7 7
7 8 8 7 7 7 7 7 7 7 8 9 8 9 7 8 10 12 13 12 12 14 13 11 10 8 9 10 11 11 4 4
8 7 8 7 8 8 8 8 8 9 10 10 11 11 10 8 8 7 8 8 9 10 11 9 8 7 8 8 7 8 9 7
8 7 6 8 9 8 9 9 9 9 12 13 12 10 8 7 6 5 6 6 7 10 10 11 9 10 10 9 9 7 6 6
7 7 7 8 9 9 9 8 8 10 9 8 6 7 4 4 5 5 5 4 6 7 8 8 10 10 10 9 7 5 6 5
6 6 8 9 10 10 9 9 8 8 7 7 7 7 7 6 7 5 4 6 6 7 7 7 8 7 7 8 6 6 5 5
3 7 10 10 10 8 9 8 7 6 7 7 7 6 6 5 5 6 6 7 7 8 7 6 6 7 6 8 8 8 8 5
9 9 11 11 10 9 8 7 7 8 9 6 7 7 8 6 6 7 6 7 7 7 8 7 6 7 7 7 7 8 9 7
10 12 11 10 8 8 7 7 7 8 6 7 7 8 6 6 6 8 8 8 9 6 9 8 8 9 8 9 9 9 9 9
Wind_Direction
99 122 124 128 177 164 292 118 107 120 86 344 31 60 267 345 263 248 248 242 255 237 261 234 216 210 218 215 213 201 113 117
44 11 28 50 353 33 341 55 30 101 81 110 187 128 43 344 333 346 291 244 257 238 246 225 196 283 205 225 161 158 143 160
53 53 44 30 18 328 331 19 340 36 51 55 39 49 61 43 25 8 345 289 306 321 287 261 170 174 223 199 171 187 171 171
47 31 26 360 344 353 3 350 339 349 75 99 132 177 156 100 95 80 2 351 354 356 335 319 324 279 174 138 161 157 176 177
52 36 28 3 341 30 21 311 6 84 86 165 174 90 80 108 92 118 108 332 348 343 305 315 318 6 351 322 197 151 154 195
72 55 36 16 26 31 29 17 28 58 321 358 53 124 167 159 241 90 83 189 226 265 271 256 256 285 305 341 69 95 155 141
72 66 53 40 30 32 25 14 11 8 7 354 8 335 318 189 83 26 270 196 223 226 295 340 336 317 352 317 312 164 223 222
81 70 61 54 33 28 21 15 16 3 7 343 312 17 23 36 60 67 27 355 10 35 344 337 344 357 348 0 6 300 211 225
97 91 77 58 48 42 25 25 5 10 15 3 353 3 27 19 27 33 28 13 3 344 350 340 343 2 340 350 325 341 323 355
90 98 85 70 53 47 35 27 17 8 24 3 6 360 26 6 19 32 5 10 12 10 21 19 19 7 12 10 10 333 322 4
111 100 102 101 87 63 49 34 14 24 18 6 13 1 9 8 10 2 2 13 4 23 20 13 7 6 15 352 6 7 338 337
88 93 84 97 91 79 68 55 45 35 19 18 27 29 5 347 7 3 6 7 6 31 20 19 12 3 4 358 348 356 358 339
98 86 88 76 78 67 48 41 27 28 30 34 35 23 15 3 18 8 1 352 358 2 8 6 10 353 350 347 343 338 321 333
74 69 83 78 67 63 45 31 21 31 36 34 40 31 23 17 7 359 354 347 356 349 350 358 345 337 336 325 316 328 320 310
102 67 75 74 73 61 47 36 24 23 29 34 27 23 13 2 357 347 325 343 339 337 343 346 340 333 327 328 328 314 309 313
100 95 73 72 70 62 52 38 33 30 35 20 14 6 359 341 347 343 336 323 320 325 332 327 324 318 321 316 307 289 296 303
147 123 86 69 70 58 46 37 35 32 20 6 356 352 350 342 333 325 313 306 306 315 307 300 299 312 324 315 293 290 304 297
153 106 84 69 62 61 43 31 33 25 357 2 348 332 330 333 334 331 324 316 317 325 313 320 322 329 326 334 355 2 359 351
109 93 82 74 62 48 35 26 12 24 16 11 354 340 356 352 348 334 325 325 328 336 332 331 330 331 339 335 349 349 353 6
95 86 76 68 62 47 36 6 18 27 13 0 348 349 346 358 347 342 334 342 345 343 356 357 359 360 17 0 348 350 33 32